Cloud_Cover
100 100 100 100 69 6 5 5 5 5 5 23 38 7 5 5 4 0 0 0 0 1 5 5 14 6 5 2 0 0 0 0 0 0 0 0 29 100 100 100 100 100 100
100 100 100 100 100 100 100 100 100 100 100 96 55 24 24 24 14 12 17 5 5 3 1 2 4 5 5 5 5 3 1 0 0 2 0 0 0 0 22 94 100 100 100
100 100 100 100 100 100 100 100 98 97 100 100 100 74 78 88 83 99 99 80 38 5 5 5 5 5 4 5 5 4 5 0 0 5 0 0 0 0 0 0 9 98 100
100 100 100 100 100 100 100 100 100 100 100 94 45 25 22 37 41 55 64 77 96 75 35 6 39 66 66 79 59 50 33 22 6 2 0 1 1 0 0 0 0 0 4
100 100 100 99 100 85 46 5 5 5 8 9 12 5 36 6 9 23 5 5 5 5 5 5 5 5 11 72 70 68 34 12 81 99 52 5 5 8 52 5 36 0 0
30 91 100 100 100 100 100 100 98 66 34 34 7 11 5 5 22 71 67 30 5 5 5 5 5 5 4 4 15 95 100 100 94 65 50 64 70 20 5 5 28 99 19
100 100 100 99 83 25 7 63 80 79 66 45 37 18 21 60 84 74 61 42 14 5 5 5 5 1 2 4 2 5 39 100 100 100 96 79 43 5 5 5 5 27 100
99 80 11 20 52 92 100 99 86 84 66 76 98 90 99 100 88 85 100 100 93 71 65 9 5 5 1 0 0 0 1 5 95 100 100 100 100 88 36 5 42 16 5
96 5 5 5 21 5 70 99 100 100 100 100 100 100 100 100 100 100 87 89 53 73 93 87 48 12 5 5 4 3 1 0 0 5 80 100 100 100 100 100 92 96 42
5 5 5 5 8 51 82 87 70 84 98 100 100 100 100 100 100 100 100 100 100 100 100 100 100 100 99 66 39 7 3 0 0 0 0 3 25 70 91 97 89 71 89
5 5 71 100 98 97 100 100 100 98 100 100 100 100 100 100 100 100 100 100 100 100 100 100 100 100 100 100 99 68 6 5 3 1 0 0 0 0 2 5 5 5 55
5 5 14 39 100 100 93 72 93 25 56 95 58 100 88 100 100 100 100 100 100 100 100 100 100 100 100 87 98 56 77 5 1 0 0 0 0 1 5 5 5 5 11
42 96 100 100 100 94 94 100 100 100 100 100 99 89 79 77 34 4 5 0 4 4 0 0 0 1 17 6 5 0 2 5 4 5 5 5 5 5 5 38 73 53 34
100 100 100 100 100 100 100 100 100 100 100 91 39 5 7 20 5 4 4 4 0 4 3 4 5 5 5 0 1 1 5 5 5 5 5 5 45 71 97 100 99 77 100
100 100 100 100 100 100 100 100 100 72 20 5 5 5 5 5 4 5 5 5 5 5 5 5 5 5 5 1 5 5 9 44 71 94 99 94 100 100 100 100 100 100 99
100 100 100 100 100 100 86 7 5 5 5 5 5 5 5 5 5 5 5 5 5 5 5 5 5 5 5 5 32 100 94 100 100 100 100 100 100 100 96 71 100 100 100
94 97 84 38 5 5 5 7 5 5 5 5 5 5 5 5 5 5 5 5 5 5 5 5 5 5 5 5 68 100 100 98 89 100 100 100 98 100 95 32 5 5 6
65 19 5 10 5 17 54 5 5 5 5 5 5 5 5 5 5 5 5 5 5 5 5 5 5 5 5 11 98 100 100 99 100 100 100 100 87 35 53 90 66 5 5
5 5 5 5 5 5 5 5 5 5 5 5 5 5 5 5 5 5 5 5 17 19 5 7 55 82 42 7 98 100 100 100 100 96 63 36 24 30 100 100 28 33 8
22 16 13 6 7 47 20 5 5 5 5 5 5 5 5 5 5 5 5 5 5 52 16 29 69 94 91 4 20 98 98 82 78 96 92 100 100 100 100 100 83 93 69
91 81 79 69 26 5 5 5 5 5 1 5 5 5 5 5 5 5 5 5 11 48 10 26 24 6 4 4 27 100 100 92 100 88 62 40 99 100 100 100 100 82 47
47 12 5 5 5 5 5 5 5 1 1 5 5 5 5 5 5 5 5 7 80 90 73 84 40 5 5 5 5 42 100 100 100 94 98 96 76 100 100 100 100 100 100
0 0 0 0 0 0 3 5 1 0 5 5 5 5 5 5 5 5 5 23 59 83 88 92 75 28 15 12 5 13 100 100 100 54 28 90 100 100 100 73 19 100 100
5 5 5 2 0 0 0 0 0 1 5 5 5 5 5 11 13 6 10 46 70 99 100 100 91 47 99 49 5 2 4 5 14 48 37 5 52 100 100 98 62 91 14
5 5 5 5 5 5 5 6 23 6 5 5 5 5 23 27 5 14 49 88 23 58 97 72 50 56 60 59 10 61 34 22 96 79 87 93 62 86 100 71 5 5 5
75 52 5 5 5 5 6 78 99 41 12 70 88 100 100 100 100 100 76 40 100 100 100 100 100 89 89 94 92 100 100 100 100 100 99 100 100 100 71 6 18 20 7